Вернуться в каталог

MIDAS 5 DEB

LostPO
NORAD 18603·DEBRIS·🇺🇸 United States

Запущен Apr 9, 1962 с Vandenberg Space Force Base

Loading…

Ближайшие Пролёты (ближайшие 24 часа)

TLE

УстаревшееSource: Space-Track

Эпоха: May 31, 2026, 22:36 UTC

1 18603U 62010G   26151.94233968  .00000004  00000-0 -32190-3 0  9999
2 18603  86.6848 328.5198 0291243  81.4765  73.9026  9.41013414377010

Отслеживайте MIDAS 5 DEB в реальном времени с AllMySat

Download on the App Store